Home > Weather > Salem > Past weeks

Flag for USA Past Weather in Salem, Oregon, USA — Yesterday and Last 2 Weeks

Now
73 °F

Clear.


Feels Like: 77 °F
Forecast: 57 / 82 °F
Wind: 8 mph from West

Location: McNary Field

Current Time: Jul 29, 2016 at 10:28:37 PM

Latest Report: Jul 29, 2016 at 9:56 PM


Visibility: 10 mi

Pressure: 29.89 "Hg

Humidity: 50%

Dew Point: 53 °F

Location of SalemLocation

Past Weather in Salem — Graph

°F

Salem Temperature Yesterday

Maximum temperature yesterday: 96 °F (at 5:56 PM)
Minimum temperature yesterday: 60 °F (at 4:56 AM)
Average temperature yesterday: 78 °F

High & Low Weather Summary for the Past Weeks

 TemperatureHumidityPressure
High97 °F (Jul 29, 3:56 PM)89% (Jul 20, 4:56 AM)30.28 "Hg (Jul 20, 4:56 AM)
Low52 °F (Jul 20, 4:56 AM)23% (Jul 28, 5:56 PM)29.84 "Hg (Jul 29, 5:56 PM)
Average69 °F59%30.06 "Hg
* Reported Jul 14 8:56 PM — Jul 29 8:56 PM, Salem, Weather by CustomWeather, © 2016

Note: Actual official high and low records may vary slightly from our data, if they occured in-between our weather recording intervals... More about our weather records

Advertising

Salem Weather History for the Previous 24 Hours

Scroll right to see more
 ConditionsComfort  
Time TempWeatherWind HumidityBarometerVisibility
8:56 PM
Fri, Jul 29
77 °FSunny.8 mph45%29.86 "Hg10 mi
7:56 PM83 °FSunny.10 mph40%29.85 "Hg10 mi
6:56 PM87 °FSunny.9 mph37%29.85 "Hg10 mi
5:56 PM94 °FSunny.13 mph30%29.84 "Hg10 mi
4:56 PM97 °FSunny.13 mph24%29.84 "Hg10 mi
3:56 PM97 °FSunny.15 mph24%29.86 "Hg10 mi
2:56 PM94 °FSunny.9 mph27%29.88 "Hg10 mi
1:56 PM91 °FSunny.9 mph30%29.90 "Hg10 mi
12:56 PM88 °FSunny.7 mph33%29.92 "Hg10 mi
11:56 AM85 °FSunny.No wind37%29.93 "Hg10 mi
10:56 AM82 °FSunny.7 mph41%29.95 "Hg10 mi
9:56 AM78 °FSunny.3 mph46%29.96 "Hg10 mi
8:56 AM74 °FSunny.5 mph56%29.96 "Hg10 mi
7:56 AM71 °FSunny.No wind59%29.96 "Hg10 mi
6:56 AM63 °FSunny.No wind78%29.96 "Hg10 mi
5:56 AM60 °FClear.No wind83%29.96 "Hg10 mi
4:56 AM61 °FClear.No wind81%29.96 "Hg10 mi
3:56 AM61 °FClear.No wind81%29.96 "Hg10 mi
2:56 AM65 °FClear.No wind76%29.95 "Hg10 mi
1:56 AM67 °FClear.No wind71%29.95 "Hg10 mi
12:56 AM68 °FClear.No wind68%29.95 "Hg10 mi
11:56 PM
Thu, Jul 28
74 °FClear.3 mph60%29.95 "Hg10 mi
10:56 PM76 °FClear.7 mph54%29.95 "Hg10 mi
Weather by CustomWeather, © 2016

See weather overviewHow to use our weather pages